{"data":{"norad_id":66868,"epoch":"2026-09-20T21:05:19.613472Z","epoch_age_seconds":51300,"freshness":"FRESH","line1":"1 66868U 25281W   26263.87869923  .00015184  00000+0  56000-3 0  9995","line2":"2 66868  43.0045 321.4519 0001801 269.0326  91.0319 15.27589549 46025","mean_motion":15.27589549,"eccentricity":0.0001801,"inclination_deg":43.0045,"raan_deg":321.4519,"arg_perigee_deg":269.0326,"mean_anomaly_deg":91.0319,"bstar":0.00056,"rev_number":4602,"period_min":94.266159449877,"perigee_km":481.78480858107,"apogee_km":484.25619751366,"semimajor_km":6861.1575030474,"source":"CELESTRAK","updated_at":"2026-09-21T09:00:36.029897Z"}}